Location: Newark
(37.3333°N, 6.0167°W)
Time: 08:32:52
(UTC+00:00)

Envisat - Visible Passes

Search period start: 14 October 2019 00:00
Search period end: 24 October 2019 00:00
Orbit: 764 x 766 km, 98.1° (Epoch: 14 October)

Date Brightness Start Highest point End Pass type
(mag) Time Alt. Az. Time Alt. Az. Time Alt. Az.
14 Oct 5.4 19:32:28 10° SSW 19:36:29 23° W 19:40:31 10° NW visible
15 Oct 6.4 06:05:10 10° ENE 06:07:52 14° E 06:10:32 10° ESE visible
15 Oct 3.8 18:54:35 10° S 18:59:33 55° W 19:04:32 10° NNW visible
16 Oct 3.0 18:17:47 10° SSE 18:22:48 64° ENE 18:27:50 10° N visible
16 Oct 6.1 20:00:01 10° WSW 20:02:13 13° W 20:04:26 10° WNW visible
17 Oct 5.0 19:20:44 10° SSW 19:25:09 30° W 19:29:36 10° NW visible
18 Oct 6.8 05:55:17 10° ENE 05:56:28 11° E 05:57:40 10° ESE visible
18 Oct 3.3 18:43:13 10° S 18:48:16 71° WSW 18:53:21 10° NNW visible
19 Oct 3.2 18:06:42 10° SSE 18:11:34 50° ENE 18:16:29 10° N visible
19 Oct 5.8 19:47:40 10° SW 19:50:51 17° W 19:54:03 10° NW visible
20 Oct 4.5 19:09:08 10° SSW 19:13:50 38° W 19:18:34 10° NNW visible
21 Oct 3.0 18:31:56 10° SSE 18:37:00 90° SSW 18:42:07 10° NNW visible
22 Oct 3.5 17:55:41 10° SE 18:00:22 39° ENE 18:05:04 10° N visible
22 Oct 5.5 19:35:40 10° SW 19:39:29 21° W 19:43:20 10° NW visible
23 Oct 6.2 06:07:49 10° NE 06:10:53 16° E 06:13:55 10° SE visible
23 Oct 4.0 18:57:38 10° S 19:02:31 49° W 19:07:27 10° NNW visible
